User: anonymous   Login
Location: ???????
(55.3754°N, 39.3545°E)
Time: 19:13:50
(UTC+00:00)
Language:

Cosmos 1452 Rocket - Orbit

View from above orbital plane
View from above orbital plane
View from above satellite
View from above satellite

Ground track
Ground track

The orbit is defined by the following mean orbital elements,

1 13992U          26162.55225253 +.00000000 +00000-0 +59206-4 0 00009
2 13992  74.0521 104.5056 0005229 337.0196  23.0723 14.37597508    09
Epoch (UTC): 11 June 2026 13:15:14
Eccentricity: 0.0005229
inclination: 74.0521°
perigee height: 763 km
apogee height: 770 km
right ascension of ascending node: 104.5056°
argument of perigee: 337.0196°
revolutions per day: 14.37597508
mean anomaly at epoch: 23.0723°

The dashed part of the orbit path shows where the satellite is in the earth's shadow,  

DLR